星链-34369 (STARLINK-34369)

导读

STARLINK-34369是美国于2025年6月8日发射的星链系列卫星,属于SpaceX星链星座组网部署的一员。星链项目旨在构建全球卫星互联网星座,为全球提供宽带互联网接入服务,该卫星入轨后将参与星座运行,补充完善星链网络覆盖能力,进一步推进低轨卫星互联网的全球布局。

基本信息
目录编号:
64297
目录名称:
STARLINK-34369
国际标识:
2025-123G
轨道中心:
EARTH
卫星名称:
星链-34369
卫星全名:
星链-34369 (STARLINK-34369)
卫星状态:
在轨 (已飞行370 天)
发射日期:
2025-06-08 UTC
国别 :
美国 (US)
星等 :
--
轨道信息
数据来源 国际轨道数据 AOE轨道数据
星历时间 2026-06-13T22:25:39+0800
9小时前
查看轨道信息
2026-06-10T07:00:00+0800
4天前
查看轨道信息
半长轴 6950.186km 6950.079km
偏心率 0.0003047 0.0003185
轨道倾角 70.001° 70.001°
近地点辐角 267.336° 271.357°
升交点赤经 312.686° 321.871°
平近点角 92.745° 245.057°
近地点 569.931km 569.728km
远地点 574.167km 574.156km
周期 96.107分钟 96.105分钟
每日圈数 14.983324 14.98367
详细信息
固有亮度:
5
最大亮度:
2.5
卫星平台:
Starlink V1.0
覆盖范围:
全球
运营商:
太空探索技术公司
运营商所在国:
美国
制造商(研发单位):
太空探索技术公司
制造商所在国:
美国
使用方式:
暂无
卫星简介
Starlink 计划是 SpaceX 推出的全球卫星互联网项目,通过发射低轨道卫星,为全球尤其是偏远地区提供高速、低延迟的互联网服务。自 2019 年起,Starlink 已部署数千颗卫星,旨在缩小全球数字鸿沟,推动互联网普及。该项目还为军事、航空等行业提供通信支持,带来广泛经济效益。
2D轨道图
3D轨道图
轨道高度分析图
轨道倾角分析图
轨道综合分析图
查看轨道综合分析图